EW9353 Weather Reports


time (UTC)temp
C
wind
direction
speed
KPH
gust
KPH
rain 1hr
cm
rain 24hr
cm
rain mn
cm
humidity
%
barometer
mb
20180419171039 23 118 6.4 17.7 0.00 0.00 0.00 33 1016.2
20180419165543 23 105 11.3 19.3 0.00 0.00 0.00 30 1016.2
20180419164039 24 138 9.7 12.9 0.00 0.00 0.00 31 1016.1
20180419162541 24 92 9.7 20.9 0.00 0.00 0.00 30 1016.2
20180419161037 24 122 4.8 20.9 0.00 0.00 0.00 31 1016.1
20180419155543 25 198 8.0 12.9 0.00 0.00 0.00 34 1016.2
20180419154041 24 132 11.3 20.9 0.00 0.00 0.00 34 1016.4
20180419152537 25 86 4.8 12.9 0.00 0.00 0.00 40 1016.4
20180419151037 23 105 1.6 16.1 0.00 0.00 0.00 36 1016.5
20180419145536 23 135 17.7 29.0 0.00 0.00 0.00 35 1016.7
20180419144036 24 127 14.5 22.5 0.00 0.00 0.00 40 1016.8
20180419142533 24 109 16.1 24.1 0.00 0.00 0.00 42 1016.9
20180419141031 23 113 14.5 25.7 0.00 0.00 0.00 41 1017.0
20180419135457 24 128 14.5 22.5 0.00 0.00 0.00 43 1017.1
20180419133959 24 131 8.0 19.3 0.00 0.00 0.00 40 1017.2
20180419132452 24 106 12.9 22.5 0.00 0.00 0.00 43 1017.3
20180419130950 23 128 11.3 20.9 0.00 0.00 0.00 41 1017.4
20180419125455 24 128 14.5 22.5 0.00 0.00 0.00 42 1017.5
20180419123955 23 121 3.2 19.3 0.00 0.00 0.00 44 1017.6
20180419122454 23 173 6.4 20.9 0.00 0.00 0.00 47 1017.7
20180419120952 23 126 12.9 20.9 0.00 0.00 0.00 43 1017.8
20180419115501 23 167 1.6 8.0 0.00 0.00 0.00 46 1018.0
20180419113954 23 121 3.2 14.5 0.00 0.00 0.00 45 1018.3
20180419112450 22 311 0.0 8.0 0.00 0.00 0.00 50 1018.4
20180419110946 22 314 4.8 12.9 0.00 0.00 0.00 53 1018.6
20180419105455 22 287 0.0 11.3 0.00 0.00 0.00 52 1018.9
20180419103953 21 313 1.6 11.3 0.00 0.00 0.00 55 1019.0
20180419102448 21 309 4.8 11.3 0.00 0.00 0.00 55 1019.0
20180419100946 20 325 1.6 9.7 0.00 0.00 0.00 61 1019.0
20180419095421 20 196 1.6 11.3 0.00 0.00 0.00 61 1019.1
20180419093915 19 196 3.2 9.7 0.00 0.00 0.00 62 1019.2
20180419092409 19 252 6.4 12.9 0.00 0.00 0.00 62 1019.1
20180419090842 18 271 4.8 8.0 0.00 0.00 0.00 63 1019.3
20180419085354 17 292 3.2 6.4 0.00 0.00 0.00 67 1019.2
20180419083853 17 196 0.0 1.6 0.00 0.00 0.00 75 1019.2
20180419082342 16 194 0.0 1.6 0.00 0.00 0.00 76 1019.2
20180419080838 15 195 0.0 4.8 0.00 0.00 0.00 83 1019.3
20180419075352 13 173 0.0 0.0 0.00 0.00 0.00 89 1019.3
20180419073847 12 173 0.0 1.6 0.00 0.00 0.00 93 1019.3
20180419072340 11 173 0.0 3.2 0.00 0.00 0.00 96 1019.2
20180419070837 10 173 0.0 1.6 0.00 0.00 0.00 96 1019.2
20180419065243 8 136 0.0 6.4 0.00 0.00 0.00 96 1019.2
20180419063738 7 134 1.6 6.4 0.00 0.00 0.00 95 1019.4
20180419062235 7 134 1.6 11.3 0.00 0.00 0.00 96 1019.4
20180419060731 6 148 0.0 4.8 0.00 0.00 0.00 94 1019.4
20180419055256 6 148 1.6 4.8 0.00 0.00 0.00 95 1019.4
20180419053751 6 148 0.0 4.8 0.00 0.00 0.00 94 1019.5
20180419052252 6 148 0.0 4.8 0.00 0.00 0.00 94 1019.5
20180419050753 6 148 0.0 4.8 0.00 0.00 0.00 94 1019.5
20180419045248 6 148 0.0 4.8 0.00 0.00 0.00 94 1019.5
20180419043748 7 146 0.0 8.0 0.00 0.00 0.00 93 1019.5
20180419042249 7 173 1.6 8.0 0.00 0.00 0.00 94 1019.5
20180419040746 7 175 1.6 12.9 0.00 0.00 0.00 95 1019.4
20180419035250 7 30 1.6 8.0 0.00 0.00 0.00 94 1019.7
20180419033746 7 126 1.6 6.4 0.00 0.00 0.00 94 1019.6
20180419032244 6 150 0.0 4.8 0.00 0.00 0.00 93 1019.7
20180419030743 7 150 3.2 8.0 0.00 0.00 0.00 94 1019.7
20180419025247 6 44 0.0 3.2 0.00 0.00 0.00 93 1020.0
20180419023744 6 41 0.0 8.0 0.00 0.00 0.00 93 1020.2
20180419022244 6 145 0.0 3.2 0.00 0.00 0.00 93 1020.3
20180419020841 6 145 0.0 3.2 0.00 0.00 0.00 93 1020.3
20180419015145 7 145 1.6 4.8 0.00 0.00 0.00 93 1020.5
20180419013639 7 146 0.0 4.8 0.00 0.00 0.00 91 1020.5
20180419012136 7 221 1.6 4.8 0.00 0.00 0.00 91 1020.7
20180419010635 7 223 0.0 6.4 0.00 0.00 0.00 91 1020.8
20180419005144 7 142 0.0 3.2 0.00 0.00 0.00 91 1020.8
20180419003641 8 142 1.6 3.2 0.00 0.00 0.00 90 1020.7
20180419002137 8 142 0.0 1.6 0.00 0.00 0.00 90 1020.7
20180419000635 8 142 0.0 6.4 0.00 0.00 0.00 89 1020.8
20180418235200 8 171 1.6 4.8 0.00 0.00 0.00 89 1021.0
20180418233657 9 210 0.0 3.2 0.00 0.00 0.00 88 1021.1
20180418232154 9 210 1.6 3.2 0.00 0.00 0.00 87 1021.3
20180418230652 9 210 0.0 3.2 0.00 0.00 0.00 85 1021.4
20180418225146 10 211 1.6 3.2 0.00 0.00 0.00 84 1021.6
20180418223645 10 261 0.0 3.2 0.00 0.00 0.00 82 1021.6
20180418222146 11 261 0.0 1.6 0.00 0.00 0.00 81 1021.8
20180418220648 12 261 0.0 1.6 0.00 0.00 0.00 78 1021.7
20180418215145 12 261 3.2 4.8 0.00 0.00 0.00 74 1021.7
20180418213643 13 261 3.2 6.4 0.00 0.00 0.00 70 1021.7
20180418212142 15 261 0.0 0.0 0.00 0.00 0.00 66 1021.7
20180418210641 16 261 1.6 8.0 0.00 0.00 0.00 64 1021.7
20180418205141 16 228 12.9 19.3 0.00 0.00 0.00 61 1021.6
20180418203642 16 82 3.2 6.4 0.00 0.00 0.00 66 1021.4
20180418202140 17 253 1.6 9.7 0.00 0.00 0.00 61 1021.0
20180418200638 17 244 8.0 16.1 0.00 0.00 0.00 59 1020.9
20180418195141 17 249 9.7 14.5 0.00 0.00 0.00 62 1020.7
20180418193638 18 231 8.0 17.7 0.00 0.00 0.00 59 1020.5
20180418192136 19 219 8.0 12.9 0.00 0.00 0.00 61 1020.4
20180418190639 20 211 8.0 11.3 0.00 0.00 0.00 59 1020.1
20180418185137 21 238 6.4 12.9 0.00 0.00 0.00 51 1019.9
20180418183636 22 162 4.8 16.1 0.00 0.00 0.00 42 1019.6
20180418182136 23 227 8.0 16.1 0.00 0.00 0.00 44 1019.6
20180418180638 23 217 8.0 14.5 0.00 0.00 0.00 43 1019.4
20180418175137 23 208 12.9 24.1 0.00 0.00 0.00 41 1019.4
20180418173634 23 229 14.5 27.4 0.00 0.00 0.00 39 1019.2
20180418172132 24 221 16.1 25.7 0.00 0.00 0.00 39 1019.2